This demonstration page uses our WeatherBlox Daily Observations layout. Learn more.

Left ArrowRight Arrow

47.50024, -111.30081

Hourly Observations for October 22, 2019

Temp ( °F °C ) Dew Point ( °F °C ) Humidity (%) Winds ( mph kmh ) Pressure ( in mb ) Visibility ( mi km ) Precip ( " mm )
12:53 am 00:53 Clear 39 3.9 28 -2.2 65 65 SW 14 22 30.10 1019 10 16 0.00 0.00
1:53 am 01:53 Clear 40 4.4 29 -1.7 65 65 SW 13 20 30.08 1019 10 16 0.00 0.00
2:53 am 02:53 Clear 41 5 29 -1.7 62 62 SW 15 24 30.05 1018 10 16 0.00 0.00
3:53 am 03:53 Clear 43 6.1 30 -1.1 60 60 SW 17 28 30.03 1017 10 16 0.00 0.00
4:53 am 04:53 Clear 44 6.7 30 -1.1 58 58 SW 18 30 30.01 1016 10 16 0.00 0.00
5:53 am 05:53 Partly Cloudy 45 7.2 31 -0.6 58 58 SW 20 31 29.98 1015 10 16 0.00 0.00
6:53 am 06:53 Clear 46 7.8 31 -0.6 56 56 SW 24 39 29.97 1015 10 16 0.00 0.00
7:53 am 07:53 Clear 46 7.8 32 0 58 58 SW 20 31 29.93 1014 10 16 0.00 0.00
8:53 am 08:53 Mostly Cloudy 48 8.9 32 0 54 54 SW 24 39 29.90 1013 10 16 0.00 0.00
9:53 am 09:53 Sunny 49 9.4 33 0.6 55 55 SW 23 37 29.87 1012 10 16 0.00 0.00
10:53 am 10:53 Sunny 50 10 34 1.1 54 54 SSW 30 48 29.82 1010 10 16 0.00 0.00
11:53 am 11:53 Sunny 51 10.6 34 1.1 52 52 SSW 25 41 29.83 1010 10 16 0.00 0.00
12:53 pm 12:53 Mostly Sunny 58 14.4 34 1.1 41 41 SSW 17 28 29.83 1010 10 16 0.00 0.00
1:53 pm 13:53 Sunny 61 16.1 29 -1.7 30 30 W 41 67 29.73 1007 10 16 0.00 0.00
2:53 pm 14:53 Mostly Cloudy 60 15.6 32 0 35 35 WSW 38 61 29.72 1007 10 16 0.00 0.00
3:53 pm 15:53 Sunny 56 13.3 33 0.6 42 42 WSW 37 59 29.76 1008 10 16 0.00 0.00
4:53 pm 16:53 Cloudy with Light Rain 44 6.7 35 1.7 71 71 W 22 35 29.87 1012 3 5 0.02 0.51
5:12 pm 17:12 Partly Cloudy 45 7.2 35 1.7 68 68 W 20 31 29.83 1010 10 16 0.00 0.00
5:53 pm 17:53 Sunny 45 7.2 33 0.6 63 63 W 22 35 29.86 1011 10 16 0.00 0.00
6:53 pm 18:53 Clear 43 6.1 32 0 65 65 W 16 26 29.89 1012 10 16 0.00 0.00
7:53 pm 19:53 Cloudy 44 6.7 29 -1.7 55 55 W 16 26 29.92 1013 10 16 0.00 0.00
8:53 pm 20:53 Cloudy 44 6.7 27 -2.8 51 51 W 13 20 29.95 1014 10 16 0.00 0.00
9:53 pm 21:53 Cloudy 47 8.3 24 -4.4 41 41 WNW 21 33 29.96 1015 10 16 0.00 0.00
10:53 pm 22:53 Cloudy 43 6.1 29 -1.7 58 58 NE 8 13 30.01 1016 10 16 0.00 0.00
11:53 pm 23:53 Cloudy 42 5.6 30 -1.1 62 62 Calm 30.05 1018 10 16 0.00 0.00

Powered by AerisWeather